CST,Max TemperatureF,Mean TemperatureF,Min TemperatureF,Max Dew PointF,MeanDew PointF,Min DewpointF,Max Humidity, Mean Humidity, Min Humidity, Max Sea Level PressureIn, Mean Sea Level PressureIn, Min Sea Level PressureIn, Max VisibilityMiles, Mean VisibilityMiles, Min VisibilityMiles, Max Wind SpeedMPH, Mean Wind SpeedMPH, Max Gust SpeedMPH,PrecipitationIn, CloudCover, Events, WindDirDegrees
2013-12-1,29,25,20,24,19,17,92,83,74,30.27,30.09,29.85,9,4,1,14,7,17,0.02,8,Snow,106
2013-12-2,31,30,28,28,26,23,92,85,78,29.83,29.65,29.57,10,2,0,18,11,23,0.26,8,Fog-Snow,56
2013-12-3,28,25,22,25,20,18,88,81,74,29.92,29.84,29.72,10,7,1,26,18,31,0.03,8,Rain-Snow,4
2013-12-4,29,19,8,25,14,3,92,85,77,29.88,29.78,29.69,9,1,0,30,19,36,0.38,8,Fog-Snow,354
2013-12-5,8,1,-7,3,-6,-13,80,73,65,30.41,30.09,29.82,10,6,1,28,17,33,T,4,Snow,286
2013-12-6,-4,-9,-15,-11,-17,-21,79,69,59,30.73,30.59,30.42,10,10,2,13,8,15,0.00,1,,263
2013-12-7,-8,-12,-17,-18,-21,-24,74,66,57,30.74,30.68,30.58,10,10,5,16,9,17,0.00,0,,217
2013-12-8,6,-4,-14,0,-7,-19,86,78,70,30.55,30.21,30.03,10,4,1,13,7,15,0.03,7,Snow,173
2013-12-9,4,-4,-12,-2,-10,-19,79,69,59,30.16,29.96,29.75,10,6,1,20,12,25,0.05,5,Snow,208
2013-12-10,6,-4,-14,0,-9,-18,87,79,70,30.47,30.09,29.85,10,7,0,16,8,20,0.01,5,Snow,289
2013-12-11,1,-8,-18,-5,-15,-24,75,69,63,30.60,30.43,30.22,10,8,1,15,10,18,0.03,3,Snow,194
2013-12-12,14,5,-5,5,-1,-8,83,75,66,30.32,30.27,30.16,10,9,3,16,6,20,T,6,Snow,358
2013-12-13,4,2,-1,-3,-7,-9,87,76,65,30.44,30.36,30.28,10,5,1,21,14,24,0.03,8,Snow,26
2013-12-14,2,-5,-12,-4,-7,-17,79,72,65,30.41,30.29,30.17,10,4,0,14,7,17,0.04,7,Snow,326
2013-12-15,5,-2,-9,0,-11,-16,79,72,64,30.30,30.19,29.99,10,8,1,20,7,23,0.02,8,Snow,64
2013-12-16,32,19,5,27,11,0,85,77,69,30.05,29.91,29.84,10,6,0,28,16,33,0.06,5,Snow,208
2013-12-17,31,17,2,24,9,-1,86,75,64,30.16,30.06,29.91,10,9,2,28,11,36,T,3,Snow,336
2013-12-18,30,16,2,21,10,-3,84,75,65,30.09,29.82,29.62,10,7,1,29,14,32,T,4,Snow,323
2013-12-19,2,-1,-5,-5,-8,-11,79,75,71,30.32,30.23,30.07,10,6,1,24,14,28,0.04,7,Snow,360
2013-12-20,6,-3,-13,1,-8,-18,87,81,75,30.26,30.07,29.91,10,6,1,12,5,14,T,2,Snow,192
2013-12-21,4,-4,-12,-2,-10,-16,83,77,71,30.24,30.08,29.92,10,8,4,17,8,20,0.00,3,Snow,348
2013-12-22,-3,-7,-11,-10,-13,-19,75,70,64,30.54,30.32,30.20,10,7,1,21,15,25,0.01,7,Snow,346
2013-12-23,-9,-15,-21,-19,-22,-28,77,68,58,30.70,30.62,30.50,10,10,10,17,7,21,0.00,0,,306
2013-12-24,19,2,-15,13,-2,-21,88,76,64,30.45,30.15,30.04,10,6,0,25,15,33,0.10,7,Snow,171
2013-12-25,24,19,13,19,11,7,84,76,67,30.22,30.11,29.96,10,8,1,22,9,29,0.02,7,Snow,255
2013-12-26,27,21,14,23,15,10,88,81,74,30.15,30.08,30.02,10,7,2,10,4,12,0.03,8,Snow,127
2013-12-27,40,33,26,32,28,22,89,82,75,30.06,29.94,29.85,10,10,6,22,11,28,0.00,5,,229
2013-12-28,35,12,-12,31,6,-20,92,81,70,30.51,30.03,29.72,10,4,0,46,23,54,0.01,6,Fog-Rain-Snow,348
2013-12-29,-6,-11,-16,-16,-19,-23,70,64,57,30.57,30.46,30.28,10,10,10,30,9,33,0.00,2,,261
2013-12-30,2,-8,-19,-6,-10,-23,79,72,64,30.37,30.24,30.11,10,5,1,18,7,20,0.04,7,Snow,45
2013-12-31,-14,-16,-18,-20,-23,-26,81,72,62,30.56,30.45,30.22,10,9,2,14,8,16,0.00,2,,352